Weather History for KFME - December, 2011

Change the Weather History Date:

Thursday, December 29, 2011

  Actual Average (KBWI) Record (KBWI)
Temperature  
Mean Temperature 31 °F 34 °F  
Max Temperature 39 °F 42 °F 77 °F (1984)
Min Temperature 23 °F 25 °F 2 °F (1917)
Degree Days  
Heating Degree Days 34 31  
Month to date heating degree days 815  
Since 1 July heating degree days 1719  
Cooling Degree Days 0 0  
Month to date cooling degree days 0  
Year to date cooling degree days 1164  
Moisture  
Dew Point 25 °F    
Average Humidity 77    
Maximum Humidity 93    
Minimum Humidity 56    
Precipitation  
Precipitation 0.00 in 0.09 in 2.88 in (1901)
Month to date precipitation 3.19  
Year to date precipitation 41.70  
Snow  
Snow 0.00 in 0.10 in 4.90 in (1935)
Month to date snowfall 2.7  
Since 1 July snowfall 3.1  
Snow Depth -    
Sea Level Pressure  
Sea Level Pressure 30.04 in    
Wind  
Wind Speed 2 mph (South)    
Max Wind Speed 6 mph    
Max Gust Speed -    
Visibility 10 miles    
Events      
T = Trace of Precipitation, MM = Missing Value Source: NWS Daily Summary

Daily Weather History Graph

Daily Weather History Graph

Search for Another Location

Airport or City:

Trip Planner

Search our weather history database for the weather conditions in past years. The results will help you decide how hot, cold, wet, or windy it might be!

Date:

Astronomy

Dec. 29, 2011 Rise Set
Actual Time 7:25 AM EST 4:52 PM EST
Civil Twilight 6:55 AM EST 5:22 PM EST
Nautical Twilight 6:22 AM EST 5:56 PM EST
Astronomical Twilight 5:49 AM EST 6:28 PM EST
Moon 10:20 AM EST (12/29) 10:24 PM EST (12/29)
Length of Visible Light 10h 27m
Length of Day
9h 26m
Waxing Crescent, 26% of the Moon is Illuminated
Dec 29
Waxing Crescent
Jan 1
First Quarter
Jan 9
Full
Jan 16
Last Quarter
Jan 23
New

Hourly Weather History & Observations

Time (EST) Temp. Windchill Dew Point Humidity Pressure Visibility Wind Dir Wind Speed Gust Speed Precip Events Conditions
12:03 AM 30.2 °F 25.4 °F 19.4 °F 64% 30.03 in 10.0 mi WNW 4.6 mph - N/A   Clear
12:21 AM 30.2 °F 24.3 °F 19.4 °F 64% 30.02 in 10.0 mi WNW 5.8 mph - N/A   Clear
12:39 AM 30.2 °F 24.3 °F 21.2 °F 69% 30.03 in 10.0 mi WNW 5.8 mph - N/A   Clear
1:00 AM 30.2 °F 24.3 °F 19.4 °F 64% 30.04 in 10.0 mi West 5.8 mph - N/A   Clear
1:18 AM 28.4 °F 23.3 °F 21.2 °F 74% 30.04 in 10.0 mi West 4.6 mph - N/A   Clear
1:39 AM 28.4 °F 24.6 °F 19.4 °F 69% 30.04 in 10.0 mi WNW 3.5 mph - N/A   Clear
1:57 AM 28.4 °F - 21.2 °F 74% 30.05 in 10.0 mi Calm Calm - N/A   Clear
2:18 AM 28.4 °F - 21.2 °F 74% 30.05 in 10.0 mi Calm Calm - N/A   Clear
2:36 AM 28.4 °F - 19.4 °F 69% 30.05 in 10.0 mi Calm Calm - N/A   Clear
2:54 AM 28.4 °F - 19.4 °F 69% 30.04 in 10.0 mi Calm Calm - N/A   Clear
3:15 AM 26.6 °F - 21.2 °F 80% 30.04 in 10.0 mi Calm Calm - N/A   Clear
3:33 AM 26.6 °F - 21.2 °F 80% 30.03 in 10.0 mi Calm Calm - N/A   Clear
3:54 AM 26.6 °F - 21.2 °F 80% 30.04 in 10.0 mi Calm Calm - N/A   Clear
4:12 AM 26.6 °F - 21.2 °F 80% 30.03 in 10.0 mi Calm Calm - N/A   Clear
4:33 AM 26.6 °F 22.6 °F 21.2 °F 80% 30.04 in 10.0 mi South 3.5 mph - N/A   Clear
4:51 AM 24.8 °F - 21.2 °F 86% 30.05 in 10.0 mi Calm Calm - N/A   Clear
5:09 AM 24.8 °F - 21.2 °F 86% 30.05 in 10.0 mi Calm Calm - N/A   Clear
5:30 AM 24.8 °F - 21.2 °F 86% 30.06 in 10.0 mi Calm Calm - N/A   Clear
5:48 AM 23.0 °F - 21.2 °F 93% 30.06 in 10.0 mi Calm Calm - N/A   Clear
6:09 AM 23.0 °F - 21.2 °F 93% 30.06 in 10.0 mi Calm Calm - N/A   Clear
6:27 AM 23.0 °F - 21.2 °F 93% 30.06 in 10.0 mi Calm Calm - N/A   Clear
8:03 AM 26.6 °F - 24.8 °F 93% 30.09 in 10.0 mi Calm Calm - N/A   Clear
8:24 AM 28.4 °F - 24.8 °F 86% 30.08 in 10.0 mi Calm Calm - N/A   Scattered Clouds
8:42 AM 30.2 °F - 24.8 °F 80% 30.10 in 10.0 mi Calm Calm - N/A   Scattered Clouds
9:03 AM 30.2 °F - 24.8 °F 80% 30.11 in 10.0 mi Calm Calm - N/A   Mostly Cloudy
9:21 AM 32.0 °F - 24.8 °F 75% 30.12 in 10.0 mi Calm Calm - N/A   Overcast
9:39 AM 32.0 °F - 24.8 °F 75% 30.12 in 10.0 mi Calm Calm - N/A   Overcast
10:00 AM 33.8 °F 30.8 °F 23.0 °F 65% 30.11 in 10.0 mi SSE 3.5 mph - N/A   Mostly Cloudy
10:18 AM 35.6 °F 31.7 °F 23.0 °F 60% 30.11 in 10.0 mi South 4.6 mph - N/A   Mostly Cloudy
10:39 AM 35.6 °F 32.8 °F 23.0 °F 60% 30.11 in 10.0 mi SSE 3.5 mph - N/A   Mostly Cloudy
10:57 AM 35.6 °F 31.7 °F 24.8 °F 65% 30.10 in 10.0 mi SE 4.6 mph - N/A   Overcast
11:15 AM 35.6 °F 32.8 °F 23.0 °F 60% 30.09 in 10.0 mi SSE 3.5 mph - N/A   Mostly Cloudy
11:54 AM 35.6 °F 31.7 °F 23.0 °F 60% 30.07 in 10.0 mi South 4.6 mph - N/A   Overcast
12:15 PM 37.4 °F - 23.0 °F 56% 30.06 in 10.0 mi Calm Calm - N/A   Mostly Cloudy
12:33 PM 37.4 °F 33.8 °F 23.0 °F 56% 30.06 in 10.0 mi SSW 4.6 mph - N/A   Scattered Clouds
12:54 PM 37.4 °F 33.8 °F 23.0 °F 56% 30.05 in 10.0 mi South 4.6 mph - N/A   Mostly Cloudy
1:12 PM 39.2 °F 37.0 °F 24.8 °F 56% 30.05 in 10.0 mi South 3.5 mph - N/A   Overcast
1:33 PM 39.2 °F 35.9 °F 24.8 °F 56% 30.04 in 10.0 mi SSE 4.6 mph - N/A   Overcast
1:51 PM 39.2 °F 37.0 °F 24.8 °F 56% 30.04 in 10.0 mi SSE 3.5 mph - N/A   Overcast
2:48 PM 39.2 °F 35.9 °F 24.8 °F 56% 30.03 in 10.0 mi SSE 4.6 mph - N/A   Overcast
3:09 PM 37.4 °F - 28.4 °F 70% 30.01 in 10.0 mi Calm Calm - N/A   Overcast
3:27 PM 37.4 °F 33.8 °F 28.4 °F 70% 29.99 in 10.0 mi ESE 4.6 mph - N/A   Mostly Cloudy
3:48 PM 37.4 °F 34.9 °F 28.4 °F 70% 30.01 in 10.0 mi South 3.5 mph - N/A   Clear
4:45 PM 35.6 °F 32.8 °F 30.2 °F 81% 30.02 in 10.0 mi East 3.5 mph - N/A   Clear
5:03 PM 33.8 °F 29.6 °F 28.4 °F 81% 30.01 in 10.0 mi East 4.6 mph - N/A   Clear
5:24 PM 32.0 °F 27.5 °F 28.4 °F 87% 30.00 in 10.0 mi East 4.6 mph - N/A   Clear
5:42 PM 32.0 °F - 28.4 °F 87% 30.01 in 10.0 mi Calm Calm - N/A   Clear
6:00 PM 32.0 °F - 28.4 °F 87% 30.01 in 10.0 mi Calm Calm - N/A   Clear
6:21 PM 32.0 °F - 28.4 °F 87% 30.01 in 10.0 mi Calm Calm - N/A   Clear
6:39 PM 30.2 °F - 28.4 °F 93% 30.01 in 10.0 mi Calm Calm - N/A   Clear
7:00 PM 32.0 °F - 28.4 °F 87% 30.02 in 10.0 mi Calm Calm - N/A   Scattered Clouds
7:18 PM 32.0 °F - 28.4 °F 87% 30.01 in 10.0 mi Calm Calm - N/A   Mostly Cloudy
7:39 PM 30.2 °F - 28.4 °F 93% 30.02 in 10.0 mi Calm Calm - N/A   Mostly Cloudy
7:57 PM 32.0 °F - 28.4 °F 87% 30.02 in 10.0 mi Calm Calm - N/A   Overcast
8:15 PM 32.0 °F - 28.4 °F 87% 30.01 in 10.0 mi Calm Calm - N/A   Scattered Clouds
8:36 PM 30.2 °F - 28.4 °F 93% 30.01 in 10.0 mi Calm Calm - N/A   Scattered Clouds
8:54 PM 32.0 °F - 28.4 °F 87% 30.01 in 10.0 mi Calm Calm - N/A   Mostly Cloudy
9:15 PM 32.0 °F - 28.4 °F 87% 30.00 in 10.0 mi Calm Calm - N/A   Scattered Clouds
10:12 PM 30.2 °F - 28.4 °F 93% 29.99 in 10.0 mi Calm Calm - N/A   Scattered Clouds
10:30 PM 30.2 °F - 28.4 °F 93% 30.00 in 10.0 mi Calm Calm - N/A   Scattered Clouds
10:51 PM 30.2 °F - 28.4 °F 93% 30.00 in 10.0 mi Calm Calm - N/A   Mostly Cloudy
11:09 PM 30.2 °F - 28.4 °F 93% 30.00 in 10.0 mi Calm Calm - N/A   Mostly Cloudy
11:48 PM 32.0 °F - 30.2 °F 93% 29.99 in 10.0 mi Calm Calm - N/A   Overcast